RH
12 15 28 55 56 57 64 69 68 68 68 55 52 56 47 24 32 22 12 11 6 16 7 5 6 6 6 5 6 7 7 8 8 8 9 9 8 8 8 7 7 6 6 7 8 7 7 7 7
13 14 28 46 59 55 50 59 66 67 61 50 34 22 19 46 49 37 14 9 6 13 17 7 6 7 7 7 7 8 9 10 11 11 10 9 8 8 8 7 7 7 7 7 7 7 8 8 8
13 14 17 52 60 66 64 72 76 75 60 44 28 18 17 26 54 41 16 10 8 8 18 16 10 6 7 8 9 9 10 11 11 11 10 10 10 9 9 8 7 7 7 7 6 6 6 6 7
18 19 20 28 36 38 64 80 80 74 72 68 49 27 18 23 52 37 15 14 8 9 14 20 19 11 6 6 7 9 10 10 10 10 10 9 9 8 7 7 7 6 6 6 6 6 6 6 6
23 20 24 26 24 23 37 83 80 78 73 42 26 20 18 27 61 72 37 24 22 17 17 20 24 24 15 8 6 7 8 8 8 8 8 8 7 7 6 6 5 5 5 5 5 5 5 6 6
31 30 30 26 33 37 46 75 78 73 61 25 23 26 31 58 65 62 71 54 36 37 30 20 20 23 25 22 15 10 8 8 8 8 8 9 9 8 8 7 7 7 7 6 6 6 6 6 6
26 25 24 21 26 25 36 57 57 46 29 26 25 28 40 80 79 46 54 59 63 70 39 33 32 24 24 24 22 19 16 11 9 9 8 8 9 9 10 10 8 8 8 7 7 7 7 8 9
23 24 26 22 23 24 37 40 37 40 34 31 29 29 34 36 41 50 53 70 75 53 91 70 38 39 37 29 22 19 18 18 18 19 18 15 12 11 12 17 15 14 14 16 14 17 22 21 21
27 29 33 24 24 19 30 40 34 35 39 37 34 34 32 39 52 58 54 63 74 96 96 96 87 40 40 38 39 31 34 32 27 32 34 29 24 22 18 18 24 25 32 36 33 32 41 54 56
14 23 29 30 27 21 22 27 39 38 41 46 27 37 39 40 42 66 83 95 85 97 97 96 96 55 75 75 66 64 63 60 65 68 61 60 45 34 32 43 46 46 51 55 73 90 84 85 76
12 15 17 25 29 19 26 29 29 35 31 33 27 33 33 33 36 48 57 70 82 96 96 94 95 96 97 96 87 89 78 82 73 72 74 69 68 63 77 70 86 85 80 90 82 86 82 86 78
10 11 13 14 18 27 37 36 38 43 33 31 28 25 29 28 28 30 37 58 97 97 95 65 68 92 97 95 93 94 96 95 94 92 95 96 93 95 93 93 92 95 91 98 96 95 96 96 97
8 11 14 15 15 16 17 35 37 38 36 29 27 28 31 34 37 51 54 65 75 76 72 63 53 58 84 92 94 93 92 92 97 90 89 97 97 96 96 95 95 97 96 97 97 97 96 97 96
5 7 9 11 16 19 19 17 18 26 30 32 34 34 35 36 44 47 49 55 56 54 64 77 79 65 53 62 76 80 65 72 88 82 94 88 80 94 95 92 96 97 89 83 81 94 83 87 88
7 8 8 7 8 13 18 18 17 19 25 33 32 34 45 46 49 51 58 71 48 50 50 62 71 62 64 67 79 80 91 85 85 97 98 80 86 88 96 96 96 96 96 95 94 78 71 71 63
18 20 13 9 11 19 16 41 39 56 41 52 57 47 58 46 55 48 52 53 52 45 43 54 56 54 62 73 78 89 91 90 89 84 77 83 84 92 94 95 95 96 96 97 96 96 90 80 77
12 16 15 11 14 12 18 55 52 65 49 47 48 59 45 74 53 48 59 63 60 52 49 50 51 58 64 65 79 86 84 76 74 70 45 40 38 45 58 71 82 77 80 91 91 92 93 93 95
12 12 10 10 25 24 47 76 76 67 67 67 60 63 70 87 79 92 90 62 59 61 58 62 63 64 66 71 76 77 76 75 73 50 43 45 31 28 28 28 26 43 60 68 72 73 84 96 93
29 52 41 25 49 69 96 94 85 80 85 64 84 85 89 90 96 94 89 74 77 66 68 82 71 66 66 67 66 66 60 57 59 47 38 46 43 41 43 34 24 22 17 34 53 62 64 76 82
64 58 32 27 89 92 95 97 94 76 44 63 83 99 92 92 95 96 95 91 89 91 94 73 59 51 50 52 57 55 50 45 42 40 34 34 41 45 39 27 14 12 14 24 37 44 57 58 53
56 52 64 77 85 63 54 43 35 43 57 78 77 88 85 87 91 96 96 96 95 82 79 62 53 46 45 45 47 49 55 53 52 52 52 52 50 41 23 9 11 17 19 24 36 44 46 46 43
67 74 71 70 74 92 89 88 85 70 64 67 55 53 67 82 99 97 96 90 95 86 82 70 58 49 47 52 58 58 56 51 37 20 21 17 10 9 12 15 18 24 27 42 52 54 56 58 64
78 66 62 64 73 68 83 82 73 65 60 52 66 85 89 99 98 97 97 98 90 83 84 64 27 35 19 12 17 22 14 10 11 12 14 22 34 39 44 45 49 50 51 52 53 57 64 67 70
67 63 54 54 56 58 72 76 77 80 94 94 92 71 90 97 97 97 97 86 83 76 27 14 8 8 8 8 8 12 21 31 35 36 39 43 49 55 53 52 53 54 53 53 51 49 48 49 51
64 52 51 55 53 54 60 70 79 81 50 34 35 46 70 95 88 73 76 68 61 30 11 8 8 10 16 28 40 44 50 50 47 47 49 52 52 41 27 16 10 7 6 5 5 5 5 6 7
63 64 65 64 58 63 66 42 45 34 38 81 61 43 58 47 55 52 38 21 11 9 9 9 9 14 23 31 34 40 47 53 52 48 35 15 8 6 5 4 4 4 4 4 4 4 4 4 4
57 53 43 38 34 34 35 31 36 32 22 18 19 26 33 33 23 12 10 10 10 10 9 8 9 19 33 34 30 38 42 49 22 9 8 5 4 4 4 5 5 5 5 5 5 5 5 5 5
49 46 41 34 36 36 36 30 33 27 18 24 22 19 24 14 12 12 11 11 10 9 9 13 22 26 32 28 19 39 47 14 8 5 5 5 5 5 5 5 4 4 5 5 5 5 5 5 5
68 70 70 60 70 66 44 34 32 20 18 16 18 20 15 15 14 14 13 12 10 10 13 17 30 32 27 22 35 52 16 7 5 5 5 5 5 5 4 4 4 5 5 5 4 4 4 4 4
78 75 73 73 79 68 51 53 28 19 16 15 18 18 20 20 18 17 13 13 11 14 19 26 32 40 53 61 57 19 8 6 6 6 6 6 6 6 6 6 6 6 6 6 5 4 3 3 3
Wind_Speed
6 9 12 17 13 10 10 10 4 4 14 25 22 26 28 25 22 20 17 12 10 6 6 5 5 8 11 11 10 10 9 9 9 10 9 8 7 6 5 5 7 8 9 10 10 10 11 12 13
4 6 9 9 9 9 7 8 7 11 17 19 21 24 22 18 14 19 15 10 9 7 6 7 7 8 9 11 13 13 13 11 11 11 11 12 12 12 11 11 11 12 13 14 15 15 16 16 16
4 1 5 12 5 5 3 7 11 24 17 20 24 24 23 16 14 17 14 7 8 8 8 10 9 10 12 12 13 14 15 15 15 15 15 15 15 15 15 15 16 16 17 16 16 16 17 17 18
4 3 5 7 8 9 1 8 18 24 28 32 33 28 24 18 15 20 20 9 8 7 9 9 12 12 12 14 15 16 17 17 18 18 18 18 18 18 18 19 19 19 19 19 18 18 18 19 20
5 2 5 8 6 5 4 5 21 28 36 34 30 28 27 21 14 19 16 8 7 7 7 9 12 12 12 13 13 16 17 19 19 20 21 21 21 20 21 21 22 22 22 22 23 23 24 24 23
5 1 3 8 9 4 3 7 20 30 32 30 29 29 29 17 11 22 19 11 11 6 7 9 13 13 13 14 14 17 18 20 21 22 24 24 23 24 23 23 24 25 26 26 27 27 27 27 28
3 8 8 6 13 7 4 10 15 22 22 26 27 29 26 25 19 22 21 17 17 22 16 13 12 14 14 16 19 21 22 23 22 23 25 28 27 27 26 26 27 27 29 29 29 30 31 30 30
7 13 19 15 20 16 6 7 11 20 25 24 25 25 27 27 29 26 25 25 22 29 36 25 19 18 18 17 18 20 22 23 23 24 26 29 30 29 28 27 27 28 29 30 31 32 32 32 32
10 12 17 14 18 19 12 9 12 19 26 21 23 25 31 27 26 24 23 23 30 35 31 26 21 18 19 19 19 19 19 21 24 26 27 29 30 30 33 32 31 30 31 32 33 35 34 34 35
16 14 19 20 17 15 13 17 16 19 28 26 25 27 28 25 24 23 27 26 32 40 37 38 30 24 22 23 23 21 23 26 27 30 31 31 32 33 33 32 33 33 34 33 34 35 38 39 39
17 19 19 21 23 20 15 17 23 18 27 28 25 28 24 23 24 22 25 25 32 29 29 38 16 22 23 23 21 22 27 28 32 37 40 39 37 36 36 35 36 36 38 35 37 40 39 38 36
19 22 23 22 23 20 20 20 20 23 25 32 31 32 25 25 22 21 22 24 27 32 32 29 29 24 20 23 27 30 27 32 34 39 45 45 42 41 40 39 40 40 42 39 41 42 38 40 41
21 23 24 24 23 25 22 25 22 21 22 31 34 30 32 30 26 26 27 28 27 28 29 27 24 24 24 19 20 24 28 30 33 41 41 41 40 44 37 44 43 42 38 36 36 38 37 35 37
24 23 25 26 25 26 26 25 27 25 26 27 31 27 26 25 24 22 24 26 28 29 27 27 25 25 25 23 24 27 28 31 30 38 41 43 43 43 45 43 42 39 38 40 39 39 42 43 43
26 25 25 28 29 30 29 23 28 28 28 24 22 21 24 24 23 22 27 28 28 29 27 27 25 25 26 30 30 34 33 34 32 33 34 39 37 44 50 48 48 50 49 49 47 49 49 48 49
30 29 26 28 27 30 29 21 25 20 20 16 16 21 26 29 23 23 25 29 28 28 28 28 29 31 32 33 32 36 39 34 31 32 33 32 35 32 35 44 47 51 54 55 55 54 53 51 50
34 29 28 27 31 33 31 19 22 23 23 25 28 20 22 25 28 30 30 27 27 27 25 25 28 31 33 35 36 40 35 32 33 36 35 33 33 35 39 44 42 39 42 47 54 58 59 56 55
24 23 23 25 26 27 27 20 22 17 25 35 36 28 31 29 23 30 27 24 28 26 26 30 31 33 36 38 39 36 35 36 38 37 33 37 36 36 38 39 41 44 47 48 46 47 49 56 61
30 29 24 23 22 25 28 28 13 21 30 33 33 34 39 39 32 29 20 23 27 30 33 34 33 36 36 35 31 33 37 38 41 41 40 43 45 47 49 50 50 49 47 47 50 50 51 52 53
27 22 21 19 25 31 30 31 29 32 29 27 29 33 42 35 30 32 26 22 28 30 30 32 34 35 33 32 35 38 39 41 43 44 46 50 54 56 58 59 57 55 53 52 51 49 51 53 55
19 22 26 23 25 28 32 29 30 36 40 36 37 40 33 35 30 25 28 20 22 21 24 30 33 33 35 37 39 41 43 45 46 48 52 55 58 60 62 61 59 55 52 51 52 50 48 49 54
16 18 21 16 15 17 25 26 27 30 30 33 35 34 32 29 29 32 19 18 22 24 26 28 32 36 39 42 45 46 47 49 52 54 56 59 60 57 56 54 53 54 53 52 51 50 49 48 49
18 14 14 13 15 16 17 25 30 27 29 30 25 30 29 30 28 21 15 18 28 26 28 32 38 42 43 44 46 49 50 52 54 52 49 48 46 45 46 46 48 50 50 50 50 51 50 48 47
13 11 8 9 9 10 17 20 22 20 24 19 21 19 25 18 13 13 18 21 26 30 33 32 34 37 39 41 43 44 44 43 44 45 45 43 42 42 44 45 46 47 49 51 51 51 53 54 54
8 7 6 7 12 12 15 17 17 15 21 23 24 20 24 18 23 19 24 29 31 34 37 37 36 37 37 37 35 36 39 42 43 43 42 41 40 40 41 43 45 47 48 50 52 54 55 57 57
11 11 11 10 13 13 15 20 21 22 21 19 20 24 18 23 21 23 26 30 31 34 37 38 39 39 39 39 40 42 42 41 38 38 38 39 40 41 44 46 48 50 53 56 58 59 61 62 63
14 13 16 17 15 16 20 22 22 23 24 22 23 22 22 24 26 28 32 35 36 37 39 39 39 40 39 40 42 43 43 40 37 37 39 40 43 45 47 50 54 57 60 63 66 68 69 71 73
15 14 18 21 22 19 22 24 24 26 26 21 19 21 21 24 28 31 32 35 35 35 37 37 38 41 41 42 46 46 42 39 40 40 42 45 48 52 54 57 60 63 66 68 71 73 76 79 82
16 20 22 23 26 28 25 25 23 23 22 22 20 19 20 25 28 31 34 36 37 37 37 39 41 44 45 44 46 42 40 40 42 44 48 50 52 55 59 63 65 70 74 76 79 83 86 87 89
21 22 21 24 26 27 26 20 24 25 22 21 19 20 25 29 31 34 35 35 35 36 38 39 39 41 45 44 42 39 40 41 43 47 49 53 56 60 65 68 73 78 81 85 89 92 92 91 90
Wind_Direction
113 131 143 142 138 153 149 173 204 266 285 309 309 298 294 313 302 298 300 304 284 267 233 183 176 173 170 168 174 183 194 194 198 201 202 204 207 210 216 214 215 221 223 233 250 261 263 269 275
118 133 147 159 166 209 202 197 278 277 270 287 293 287 297 318 302 292 298 307 297 277 254 236 204 198 204 186 185 190 194 201 205 213 217 220 220 226 234 237 241 243 244 250 257 264 269 275 279
104 133 178 163 179 230 291 359 302 302 284 303 304 296 299 297 283 303 297 334 320 292 257 241 236 215 211 211 204 200 200 203 209 215 221 225 232 237 239 243 246 250 256 258 262 269 275 279 280
82 127 217 205 247 234 121 314 311 304 294 282 300 300 295 301 318 316 307 343 341 305 265 252 247 237 232 228 224 218 217 215 218 225 230 234 235 239 242 244 245 247 250 254 261 265 270 273 274
25 274 237 243 234 317 359 269 298 303 304 292 298 299 307 321 308 319 319 333 353 336 287 249 245 242 241 241 238 238 236 234 235 237 240 242 244 243 245 250 256 258 260 262 263 264 265 265 268
34 210 257 295 296 282 272 305 281 289 288 285 292 299 309 312 305 310 298 303 296 283 284 264 246 234 228 232 232 238 240 244 246 249 253 254 255 255 254 257 259 262 263 263 266 268 270 272 274
272 305 303 322 332 344 345 301 301 306 292 290 295 302 308 303 300 301 297 299 298 293 261 244 246 242 243 238 239 240 241 245 250 252 255 258 257 257 258 259 261 263 266 268 269 271 271 271 273
283 312 318 323 324 343 330 310 299 297 290 290 295 296 295 295 295 297 298 301 298 298 285 236 230 237 243 250 257 259 262 263 260 260 260 260 261 264 263 264 266 266 268 271 272 274 275 275 275
274 275 302 294 316 319 308 291 287 290 291 295 299 299 296 304 317 309 312 312 306 290 277 251 228 242 252 261 266 275 276 268 265 266 269 269 269 268 266 266 267 269 271 273 273 272 270 271 270
275 269 281 277 287 290 293 294 288 285 292 303 306 303 303 310 323 325 323 317 309 301 324 285 238 214 227 240 247 254 264 273 276 276 275 272 271 269 268 269 268 266 266 265 268 267 268 269 268
277 273 269 270 271 283 278 286 289 292 286 296 297 293 302 309 322 328 316 316 322 322 344 349 355 240 218 231 243 256 265 269 273 276 275 270 268 270 264 262 262 264 264 263 263 265 265 268 266
274 277 279 277 279 278 280 284 283 285 287 292 293 295 300 305 316 315 312 313 310 316 323 339 347 346 270 270 258 253 261 263 276 270 269 269 268 268 267 266 261 261 261 264 266 266 268 274 275
268 273 274 274 269 267 266 273 277 279 277 280 287 297 304 314 326 331 327 319 315 314 318 327 333 334 328 332 323 291 291 291 289 282 288 283 278 276 273 276 274 267 266 270 274 276 270 270 270
281 271 269 272 268 270 269 268 270 274 271 272 281 291 299 304 311 313 312 310 312 314 314 314 320 323 323 323 304 306 306 302 298 280 278 281 279 280 280 275 273 266 265 273 270 269 272 275 277
278 276 277 273 272 271 269 272 273 274 273 263 272 283 280 289 294 300 303 308 310 307 309 308 310 315 319 319 316 320 312 310 306 304 294 287 295 281 280 275 275 271 273 279 274 272 272 272 273
279 283 280 276 275 271 270 268 283 279 284 280 275 281 280 282 288 287 300 301 303 302 304 309 312 314 316 316 314 315 313 315 309 310 310 311 308 315 293 278 279 279 278 277 277 273 270 269 271
284 287 283 269 268 274 273 286 297 280 275 271 282 275 277 263 276 278 287 295 298 297 295 296 303 302 302 304 306 307 300 296 299 303 305 305 303 301 300 298 298 298 290 287 281 279 273 270 270
281 278 279 275 274 279 277 293 273 270 285 304 301 292 296 290 279 283 286 285 291 290 290 296 295 298 302 302 306 303 302 294 295 300 302 309 307 308 307 305 299 289 286 285 284 284 283 273 270
271 275 273 272 265 265 267 278 249 273 292 293 289 302 299 292 279 261 266 277 285 286 296 297 296 300 302 303 300 296 298 298 296 296 294 303 303 303 305 305 299 295 293 288 281 280 280 280 275
279 281 257 244 239 258 265 271 283 282 271 275 279 280 285 302 293 299 272 265 275 281 292 297 297 298 300 300 299 299 299 299 299 295 291 295 300 300 302 301 297 295 292 291 289 283 279 277 275
281 276 278 279 259 250 256 260 262 262 269 269 265 272 279 301 301 312 284 287 304 302 293 292 300 299 300 301 300 297 296 295 295 295 293 294 295 295 295 295 296 295 292 290 290 289 285 278 275
283 278 289 281 272 247 253 269 266 267 268 272 273 278 280 283 293 300 280 305 301 292 292 304 304 303 302 301 300 297 295 294 294 294 294 294 294 294 295 294 294 296 296 296 296 295 292 286 279
295 294 283 274 259 263 252 254 259 259 265 269 281 297 289 281 279 292 317 297 288 299 297 300 303 301 300 298 296 296 295 294 296 297 298 298 300 300 303 303 304 303 304 302 299 297 295 291 287
283 283 278 258 256 249 238 251 276 287 301 286 294 319 301 301 286 274 279 281 285 299 303 299 298 295 293 294 294 295 300 306 307 305 303 304 305 303 302 302 300 299 300 299 298 296 294 292 290
252 236 247 271 282 258 259 264 266 282 289 296 297 304 302 313 326 311 298 300 298 300 299 304 305 303 303 305 308 310 314 312 309 306 304 303 303 304 305 305 304 302 301 299 297 296 294 292 290
249 250 254 266 271 262 264 279 289 293 297 303 283 306 314 310 315 305 298 300 303 303 310 311 309 308 310 312 312 311 313 312 311 308 307 307 308 308 306 304 303 303 301 300 298 296 294 292 291
263 263 270 272 268 275 280 285 289 294 292 291 299 313 314 323 316 311 313 316 315 314 312 309 309 310 313 315 317 315 312 311 311 310 310 309 308 306 306 306 306 305 304 302 300 297 294 291 288
265 273 278 284 288 289 290 289 293 290 297 302 314 319 323 311 310 315 313 310 311 312 311 310 309 309 308 311 317 315 313 313 313 314 313 313 313 313 310 309 307 305 303 301 298 295 292 289 286
266 274 276 276 282 288 286 292 286 286 291 302 313 319 316 312 308 310 310 316 318 314 311 309 307 309 313 313 314 314 312 315 318 318 317 317 315 313 311 309 308 306 305 303 301 298 295 291 287
287 281 285 280 284 284 287 282 281 283 290 298 312 315 309 305 311 313 314 316 313 310 309 309 317 318 317 319 316 313 315 318 318 318 319 319 319 317 315 313 311 310 309 307 305 301 297 292 286